Regional Weather Roundup
Issued by NWS Charleston, SC

Home | Current Version | Previous Version | Text Only | Print | Product List | Glossary On
Versions: 1 2 3 4 5 6 7 8 9 10 11 12 13 14 15 16 17 18 19 20 21 22 23 24 25 26 27 28 29 30 31 32 33 34 35 36 37 38 39 40 41 42 43 44 45 46 47 48 49 50
000
ASUS42 KCHS 290425
RWRCHS

REGIONAL WEATHER ROUNDUP
NATIONAL WEATHER SERVICE CHARLESTON SC
1100 PM EST FRI NOV 28 2014

NOTE: "FAIR" INDICATES FEW OR NO CLOUDS BELOW 12,000 FEET WITH NO
SIGNIFICANT WEATHER AND/OR OBSTRUCTIONS TO VISIBILITY.

NOT ALL STATIONS ARE QUALITY CONTROLLED BY THE NATIONAL
WEATHER SERVICE. USE DATA WITH CAUTION...ESPECIALLY
DEWPOINT OBSERVATIONS.

SCZ027-030-031-034>040-042>050-290500-
...SOUTHEAST SOUTH CAROLINA...

CITY           SKY/WX    TMP DP  RH WIND       PRES   REMARKS
N CHARLESTON   CLEAR     34  29  82 CALM      30.34S
WATERFRONT PRK   N/A     45 N/A N/A N3          N/A
MOUNT PLEASANT FAIR      34  34 100 CALM      30.34F
JOHNS ISLAND   CLEAR     34  34 100 CALM      30.34F
PINOPOLIS        N/A     43  32  65 SE2       30.27R
MONCKS CORNER  FAIR      34  34 100 CALM      30.33F
SUMMERVILLE    FAIR      32  32 100 CALM      30.34S
BEAUFORT MCAS  CLEAR     35  32  88 CALM      30.34S
BEAUFORT ARPT  FAIR      36  36 100 CALM      30.34S FOG
HILTON HEAD IS CLEAR     34  32  93 CALM      30.35F
WALTERBORO     CLEAR     32 N/A N/A CALM      30.35S
ALLENDALE      FAIR      32  32 100 CALM      30.33S

...SOUTHERN MIDLANDS AND PEE DEE...

CITY           SKY/WX    TMP DP  RH WIND       PRES   REMARKS
GEORGETOWN     NOT AVBL
KINGSTREE      NOT AVBL
ORANGEBURG     CLEAR     32  28  85 CALM      30.33S
BARNWELL         N/A     32  32 100 CALM      30.33F
AIKEN          FAIR      32  30  93 CALM      30.34F
MANNING        NOT AVBL
COLUMBIA       CLEAR     31  28  89 S3        30.32F
SUMTER         CLEAR     33  30  89 CALM      30.30F
FLORENCE       CLEAR     32  28  85 CALM      30.32F
MYRTLE BEACH   CLEAR     34  28  80 CALM      30.33F
N MYRTLE BEACH CLEAR     31  28  89 CALM      30.33F

$$

GAZ063-065-086>088-099>101-113>116-118-119-134>141-150-290500-
...SOUTHEAST GEORGIA...

CITY           SKY/WX    TMP DP  RH WIND       PRES   REMARKS
SAVANNAH ARPT  CLEAR     37  32  82 CALM      30.35S
HUNTER AAF     CLEAR     34  32  92 W5        30.33S WCI  30
FORT STEWART   CLEAR     33  31  93 CALM      30.33F
STATESBORO     NOT AVBL
SYLVANIA       CLEAR     34  33  96 CALM      30.33F
CLAXTON        NOT AVBL

...CSRA...CENTRAL AND FAR SOUTHEAST GEORGIA...

CITY           SKY/WX    TMP DP  RH WIND       PRES   REMARKS
THOMSON        CLEAR     32  32 100 CALM      30.34F
AUGUSTA-BUSH   CLEAR     29  27  92 CALM      30.34R
AUGUSTA-DANIEL CLEAR     40  28  62 CALM      30.32S
SWAINSBORO     FAIR      34  34 100 CALM      30.33F
VIDALIA        CLEAR     36  34  93 CALM      30.32F
HAZLEHURST     FAIR      37  37  98 CALM      30.32S
ALMA           CLEAR     33  31  92 CALM      30.33F
WAYCROSS       CLEAR     38  37  95 CALM      30.33F
JESUP          FAIR      34  34 100 CALM      30.34S
BAXLEY         FAIR      36  34  93 CALM      30.32F
BRUNSWICK      CLEAR     34  34 100 CALM      30.35S
SAINT SIMONS   CLEAR     38  34  85 CALM      30.33F

$$

SCZ027-028-034-036>038-045-046-048>050-GAZ119-141-290500-
...LAKE AND SUPPLEMENTAL COASTAL OBSERVATIONS...

STATION/POSITION TIME  TEMP    WIND        PRES    WAVE   SWELL
                       AIR SEA DIR/SP/G            HT/PER HT/PER/DIR
                 (UTC) (F)     (DEG/KT/KT) (MB)    (FT/S) (FT/S/D)
UPR LAKE MARION  NOT AVBL
WINYAH BAY       0400   35     310/  3     1027.0S
LAKE MURRAY      0300   42     260/  1/  3 1026.1S
ACE BASIN NERRS  0400   34        CALM     1027.0S
FORT PULASKI     0400   45     280/  2/  2 1027.7F
SAPELO ISLAND    0400   36      30/  3     1027.0S

$$

ANZ835-935-AMZ111-154-330-350-352-354-370-450-454-472-290500-
...C-MAN AND BUOY OBSERVATIONS...

STATION/POSITION TIME  TEMP    WIND        PRES    WAVE   SWELL
                       AIR SEA DIR/SP/G            HT/PER HT/PER/DIR
                 (UTC) (F)     (DEG/KT/KT) (MB)    (FT/S) (FT/S/D)
BUOY 41004       0400   51 72  350/  6/  8 1026.6F   3/ 9   3/ 9
BUOY 41008       0400   50 62   20/  6/  8 1027.1F   3/ 6   3/ 60/ 6
FOLLY BEACH CMAN 0400   45     360/  3/  4 1027.6F
CAPERS NEARSHORE 0300   46      10/  8/ 10   N/A
FRIPP NEARSHORE  NOT AVBL


STATION/POSITION TIME  TEMP    WIND        PRES    WAVE   SWELL
                       AIR SEA DIR/SP/G            HT/PER HT/PER/DIR
                 (UTC) (F)     (DEG/KT/KT) (MB)    (FT/S) (FT/S/D)
5E ST. MARYS GA  0400      60                N/A     3/ 7   2/100/13
FRYING PAN BUOY  0400   47 67  360/  6/  8 1027.4F   3/13   3/130/13
BUOY 41025       0400   43     320/  8/ 12 1026.7F   5/10   5/ 50/10
CAPE LOOKOUT NC  0400   42     360/  4/  5 1026.4F
BUOY 41002       0319   58 72  360/ 14/ 19 1024.4F   8/ 9   7/ 20/ 9
BUOY 41010       0400   65 77   20/ 16/ 19 1024.0F   7/ 7   5/ 7
ST AUGUSTINE FL  0400   49     340/  7/ 10 1027.0F


$$


USA.gov is the U.S. government's official web portal to all federal, state and local government web resources and services.